Bridgeport, WV

6:27 AM EST on December 10, 2016 (GMT -0500)
Benedum

Weather History for KCKB - October, 2012

Change the Weather History Date:

Monday, October 1, 2012

  Actual Average Record
Temperature  
Mean Temperature 54 °F -  
Max Temperature 69 °F 70 °F 94 °F (1953)
Min Temperature 41 °F 47 °F 28 °F (1947)
Degree Days  
Heating Degree Days 10    
Growing Degree Days 4 (Base 50)    
Moisture  
Dew Point 46 °F    
Average Humidity 88    
Maximum Humidity 100    
Minimum Humidity 54    
Precipitation  
Precipitation 0.01 in - - ()
Sea Level Pressure  
Sea Level Pressure 29.89 in    
Wind  
Wind Speed 2 mph (ENE)    
Max Wind Speed 8 mph    
Max Gust Speed -    
Visibility 5 miles    
Events Fog , Rain    
Averages and records for this station are not official NWS values.
T = Trace of Precipitation, MM = Missing Value Source: NWS Daily Summary

Daily Weather History Graph

Daily Weather History Graph

Search for Another Location

Airport or City:

Trip Planner

Search our weather history database for the weather conditions in past years. The results will help you decide how hot, cold, wet, or windy it might be!

Date:

Astronomy

Oct. 01, 2012 Rise Set
Actual Time 7:17 AM EDT 7:02 PM EDT
Civil Twilight 6:50 AM EDT 7:29 PM EDT
Nautical Twilight 6:19 AM EDT 8:00 PM EDT
Astronomical Twilight 5:48 AM EDT 8:31 PM EDT
Moon 7:39 PM EDT (10/1) 8:44 AM EDT (10/1)
Length of Visible Light 12h 38m
Length of Day
11h 45m
Full, 98% of the Moon is Illuminated
Oct 1
Full
Oct 8
Last Quarter
Oct 15
New
Oct 21
First Quarter
Oct 29
Full

Hourly Weather History & Observations

Time (EDT) Temp. Windchill Dew Point Humidity Pressure Visibility Wind Dir Wind Speed Gust Speed Precip Events Conditions
12:35 AM 46.4 °F - 44.6 °F 93% 29.93 in 1.5 mi Calm Calm - N/A   Clear
12:40 AM 44.6 °F - 44.6 °F 100% 29.93 in 0.8 mi Calm Calm - N/A   Mist
12:46 AM 44.6 °F - 44.6 °F 100% 29.93 in 1.2 mi Calm Calm - N/A   Partly Cloudy
12:53 AM 46.0 °F - 44.1 °F 93% 29.91 in 2.5 mi Calm Calm - N/A   Partly Cloudy
1:07 AM 44.6 °F 43.1 °F 42.8 °F 93% 29.93 in 1.2 mi NE 3.5 mph - N/A   Partly Cloudy
1:15 AM 44.6 °F - 44.6 °F 100% 29.92 in 3.0 mi Calm Calm - N/A   Clear
1:36 AM 44.6 °F - 42.8 °F 93% 29.93 in 2.5 mi Calm Calm - N/A   Clear
1:43 AM 42.8 °F 39.3 °F 42.8 °F 100% 29.93 in 1.2 mi South 5.8 mph - N/A   Partly Cloudy
1:45 AM 42.8 °F 38.6 °F 42.8 °F 100% 29.93 in 0.8 mi South 6.9 mph - N/A   Mist
1:53 AM 45.0 °F 43.5 °F 44.1 °F 97% 29.91 in 0.2 mi South 3.5 mph - N/A Fog Fog
2:53 AM 43.0 °F - 43.0 °F 100% 29.91 in 0.2 mi Calm Calm - N/A Fog Fog
3:53 AM 44.1 °F 42.5 °F 42.1 °F 93% 29.90 in 0.2 mi NNE 3.5 mph - N/A Fog Fog
4:53 AM 42.1 °F - 42.1 °F 100% 29.91 in 0.2 mi Calm Calm - N/A Fog Fog
5:53 AM 42.1 °F - 42.1 °F 100% 29.91 in 0.5 mi Calm Calm - N/A Fog Fog
6:08 AM 42.8 °F - 42.8 °F 100% 29.92 in 1.2 mi Calm Calm - N/A   Scattered Clouds
6:16 AM 42.8 °F - 42.8 °F 100% 29.92 in 2.5 mi Calm Calm - N/A   Scattered Clouds
6:27 AM 42.8 °F - 41.0 °F 93% 29.92 in 1.0 mi Calm Calm - N/A   Mist
6:33 AM 42.8 °F - 41.0 °F 93% 29.92 in 2.0 mi Calm Calm - N/A   Partly Cloudy
6:41 AM 41.0 °F - 39.2 °F 93% 29.92 in 6.0 mi Calm Calm - N/A   Partly Cloudy
6:53 AM 41.0 °F - 39.9 °F 96% 29.91 in 7.0 mi Calm Calm - N/A   Clear
7:53 AM 42.1 °F - 41.0 °F 96% 29.92 in 6.0 mi Calm Calm - N/A   Clear
8:53 AM 46.0 °F - 44.1 °F 93% 29.94 in 10.0 mi Calm Calm - 0.01 in   Clear
9:53 AM 52.0 °F - 46.9 °F 83% 29.94 in 10.0 mi Calm Calm - N/A   Clear
10:53 AM 57.0 °F - 48.0 °F 72% 29.93 in 10.0 mi NE 4.6 mph - N/A   Clear
11:53 AM 64.0 °F - 51.1 °F 63% 29.88 in 10.0 mi North 8.1 mph - N/A   Clear
12:53 PM 66.0 °F - 48.9 °F 54% 29.88 in 10.0 mi Calm Calm - N/A   Clear
1:53 PM 68.0 °F - 51.1 °F 55% 29.86 in 10.0 mi NNW 5.8 mph - N/A   Clear
2:53 PM 66.9 °F - 52.0 °F 59% 29.85 in 10.0 mi North 6.9 mph - N/A   Mostly Cloudy
4:53 PM 62.1 °F - 55.0 °F 78% 29.86 in 10.0 mi SSW 4.6 mph - 0.00 in   Overcast
6:53 PM 62.1 °F - 55.0 °F 78% 29.84 in 10.0 mi ESE 4.6 mph - 0.00 in Rain Light Rain
7:53 PM 61.0 °F - 55.0 °F 81% 29.83 in 10.0 mi East 4.6 mph - 0.00 in Rain Light Rain
8:53 PM 60.1 °F - 55.0 °F 83% 29.80 in 10.0 mi Calm Calm - 0.00 in   Scattered Clouds
9:53 PM 59.0 °F - 54.0 °F 83% 29.80 in 10.0 mi ENE 3.5 mph - N/A   Clear
10:53 PM 60.1 °F - 54.0 °F 80% 29.79 in 10.0 mi ENE 3.5 mph - N/A   Scattered Clouds
11:53 PM 59.0 °F - 55.0 °F 87% 29.78 in 10.0 mi NE 3.5 mph - N/A   Mostly Cloudy